AirNav    Bose A20 Aviation Headset
 
 614 users online  

AL76 Mayfield (Private) Airport
Maplesville, Alabama, USA

GOING TO MAPLESVILLE?


FAA INFORMATION EFFECTIVE 15 AUGUST 2019

Location

FAA Identifier: AL76
Lat/Long: 32-50-55.4530N 086-52-11.9580W
32-50.924217N 086-52.199300W
32.8487369,-86.8699883
(estimated)
Elevation: 495 ft. / 151 m (estimated)
Variation: 00E (1985)
From city: 5 miles N of MAPLESVILLE, AL
Time zone: UTC -5 (UTC -6 during Standard Time)
Zip code: 36750

Airport Operations

Airport use: Private use. Permission required prior to landing
Activation date: 06/1987
Control tower: no
ARTCC: ATLANTA CENTER
FSS: ANNISTON FLIGHT SERVICE STATION
Attendance: UNATNDD
Wind indicator: yes
Segmented circle: no

Nearby radio navigation aids

VOR radial/distance  VOR name  Freq  Var
OKWr141/30.2BROOKWOOD VORTAC111.0000E

Airport Services

Runway Information

Runway 2/20

Dimensions: 3200 x 100 ft. / 975 x 30 m
Surface: turf
RUNWAY 2  RUNWAY 20
Traffic pattern: leftleft
Displaced threshold: 200 ft.no
Obstructions: none50 ft. trees, 4000 ft. from runway

Airport Ownership and Management from official FAA records

Ownership: Privately-owned
Owner: JEROME MAYFIELD
958 OLD RANDOLPH RD
MAPLESVILLE, AL 36750
Phone 251-424-0799
Manager: JEROME MAYFIELD
26699 MARTINIQUE DRIVE
ORANGE BEACH, AL 36561
Phone 251-424-0799

Airport Operational Statistics

Aircraft based on the field: 4
Single engine airplanes: 4
    

Additional Remarks

FOR CD CTC ATLANTA ARTCC AT 770-210-7692.

Instrument Procedures

There are no published instrument procedures at AL76.

Some nearby airports with instrument procedures:

0A8 - Bibb County Airport (12 nm NW)
02A - Chilton County Airport (13 nm E)
KEET - Shelby County Airport (20 nm N)
KEKY - Bessemer Airport (28 nm N)
1A9 - Prattville Airport - Grouby Field (31 nm SE)
 
Loc | Ops | Rwys | IFR | FBO | Links
Com | Nav | Svcs | Stats | Notes
Area around AL76 (Mayfield (Private) Airport)
 
Road maps at: MapQuest Bing Google
 
Aerial photo
No photo
 
Sectional chart

 
Airport distance calculator
Flying to Mayfield (Private) Airport? Find the distance to fly.

From to AL76

Sunrise and sunset
Times for 21-Aug-2019
 Local
(UTC-5)
 Zulu
(UTC)
Morning civil twilight05:5010:50
Sunrise06:1611:16
Sunset19:2500:25
Evening civil twilight19:5100:51

Current date and time
Zulu (UTC)  21-Aug-2019 11:38:36
Local (UTC-5)  21-Aug-2019 06:38:36
 
METAR
KEET 
21nm N 
211053Z AUTO 00000KT 10SM CLR 22/21 A3009 RMK AO2 SLP180 T02220211
KEKY 
28nm N 
211056Z AUTO 19003KT 10SM FEW005 22/22 A3010 RMK AO2 SLP038 T02170217
K1A9 
31nm SE 
211115Z AUTO 00000KT 10SM CLR 22/22 A3008 RMK AO2 T02170217
KSEM 
31nm S 
211115Z AUTO 00000KT 10SM 22/22 A3007 RMK AO2
KA08 
33nm SW 
211115Z AUTO 00000KT 10SM CLR 22/22 A3007 RMK AO2 T02200220
KSCD 
34nm NE 
211115Z AUTO 00000KT 10SM BKN005 22/22 A3010 RMK AO2 T02220222
KMXF 
39nm SE 
211056Z AUTO 00000KT 10SM CLR 23/22 A3006 RMK AO2 SLP181 T02280221
KMGM 
41nm SE 
211053Z AUTO 00000KT 10SM CLR 23/22 A3007 RMK AO2 SLP180 T02330217
TAF
KEET 
21nm N 
210630Z 2107/2206 00000KT P6SM BKN025 BKN250 FM211000 23002KT 6SM BR OVC007 TEMPO 2111/2114 2SM BR BKN003 FM211500 21004KT P6SM FEW050 FM211800 23005KT P6SM SCT050 PROB30 2122/2202 2SM TSRA BKN035CB
NOTAMs
Click for the latest NOTAMs
NOTAMs are issued by the DoD/FAA and will open in a separate window not controlled by AirNav.

 

 
 

Would you like to see your business listed on this page?

 If your business provides an interesting product or service to pilots, flight crews, aircraft, or users of the Mayfield (Private) Airport, you should consider listing it here.  To start the listing process, click on the button below
 
Add a business
 

Other Pages about Mayfield (Private) Airport

Update a link
 
Copyright © AirNav, LLC. All rights reserved. Privacy Policy  Contact